Torna al catalogo

STARLINK-36548

AttivoComunicazioniVLEO
NORAD 67617·PAYLOAD·🇺🇸 United States

Lanciato Jan 30, 2026 da Cape Canaveral Space Force Station

Loading…

Prossimi Passaggi (prossime 24 ore)

TLE

AggiornatoSource: CelesTrak SupGP

Epoca: Sep 15, 2026, 02:38 UTC

1 67617C 26020A   26258.11020833  .00038387  00000+0  13905-2 0  2584
2 67617  43.0010 150.3544 0001149 273.5786 297.6082 15.27556218    19

Traccia STARLINK-36548 in tempo reale con AllMySat

Download on the App Store